| time (UTC) | temp C | wind direction | speed KPH | gust KPH | rain 1hr cm | rain 24hr cm | rain mn cm | humidity % | barometer mb |
| 20260902102644 | 13 | 240 | 0.0 | 0.0 | 0.00 | 0.03 | 0.00 | 93 | 1012.1 |
| 20260902101644 | 13 | 240 | 0.0 | 0.0 | 0.00 | 0.03 | 0.00 | 93 | 1012.1 |
| 20260902100643 | 13 | 240 | 0.0 | 0.0 | 0.00 | 0.03 | 0.00 | 93 | 1012.3 |
| 20260902095643 | 13 | 240 | 0.0 | 0.0 | 0.00 | 0.03 | 0.00 | 93 | 1012.3 |
| 20260902094643 | 13 | 239 | 0.0 | 0.0 | 0.00 | 0.03 | 0.00 | 92 | 1012.0 |
| 20260902093644 | 13 | 239 | 0.0 | 0.0 | 0.00 | 0.03 | 0.00 | 92 | 1012.0 |
| 20260902092643 | 13 | 240 | 0.0 | 0.0 | 0.00 | 0.03 | 0.00 | 91 | 1011.7 |
| 20260902091643 | 13 | 240 | 0.0 | 0.0 | 0.00 | 0.03 | 0.00 | 91 | 1011.7 |
| 20260902090645 | 14 | 239 | 0.0 | 0.0 | 0.00 | 0.03 | 0.00 | 91 | 1011.4 |
| 20260902073645 | 15 | 240 | 0.0 | 0.0 | 0.00 | 0.03 | 0.00 | 88 | 1011.5 |
| 20260902072645 | 15 | 240 | 0.0 | 0.0 | 0.00 | 0.03 | 0.00 | 88 | 1011.5 |
| 20260902071646 | 15 | 240 | 0.0 | 0.0 | 0.00 | 0.03 | 0.00 | 88 | 1011.6 |
| 20260902070646 | 15 | 240 | 0.0 | 0.0 | 0.00 | 0.03 | 0.00 | 88 | 1011.6 |
| 20260902065647 | 15 | 240 | 0.0 | 0.0 | 0.00 | 0.03 | 0.00 | 88 | 1011.6 |
| 20260902064645 | 15 | 240 | 0.0 | 0.0 | 0.00 | 0.03 | 0.00 | 88 | 1011.6 |
| 20260902063646 | 15 | 240 | 0.0 | 0.0 | 0.00 | 0.03 | 0.00 | 87 | 1011.5 |
| 20260902062645 | 15 | 240 | 0.0 | 0.0 | 0.00 | 0.03 | 0.00 | 87 | 1011.5 |
| 20260902061646 | 15 | 240 | 0.0 | 1.6 | 0.00 | 0.03 | 0.00 | 87 | 1011.5 |
| 20260902060649 | 15 | 240 | 0.0 | 1.6 | 0.00 | 0.03 | 0.00 | 87 | 1011.5 |
| 20260902055645 | 15 | 240 | 0.0 | 1.6 | 0.00 | 0.03 | 0.00 | 86 | 1011.6 |
| 20260902054645 | 15 | 239 | 0.0 | 3.2 | 0.00 | 0.03 | 0.00 | 86 | 1011.6 |
| 20260902053645 | 15 | 239 | 0.0 | 3.2 | 0.00 | 0.03 | 0.00 | 86 | 1011.6 |
| 20260902052645 | 15 | 240 | 0.0 | 1.6 | 0.00 | 0.03 | 0.00 | 86 | 1012.0 |
| 20260902051645 | 15 | 240 | 0.0 | 1.6 | 0.00 | 0.03 | 0.00 | 86 | 1012.0 |
| 20260902050646 | 15 | 240 | 0.0 | 3.2 | 0.00 | 0.03 | 0.03 | 86 | 1012.1 |
| 20260902045647 | 15 | 240 | 0.0 | 3.2 | 0.00 | 0.03 | 0.03 | 86 | 1012.1 |
| 20260902044646 | 15 | 240 | 0.0 | 3.2 | 0.00 | 0.03 | 0.03 | 85 | 1011.9 |
| 20260902043645 | 15 | 240 | 0.0 | 3.2 | 0.00 | 0.03 | 0.03 | 85 | 1011.9 |
| 20260902042647 | 16 | 240 | 0.0 | 1.6 | 0.00 | 0.03 | 0.03 | 84 | 1011.8 |
| 20260902041646 | 16 | 240 | 0.0 | 1.6 | 0.00 | 0.03 | 0.03 | 84 | 1011.8 |
| 20260902040646 | 16 | 240 | 0.0 | 3.2 | 0.00 | 0.03 | 0.03 | 83 | 1011.6 |
| 20260902035647 | 16 | 240 | 0.0 | 3.2 | 0.00 | 0.03 | 0.03 | 83 | 1011.6 |
| 20260902034645 | 16 | 240 | 0.0 | 0.0 | 0.00 | 0.03 | 0.03 | 83 | 1011.6 |
| 20260902033647 | 16 | 240 | 0.0 | 0.0 | 0.00 | 0.03 | 0.03 | 83 | 1011.6 |
| 20260902032646 | 16 | 240 | 0.0 | 3.2 | 0.00 | 0.03 | 0.03 | 82 | 1011.6 |
| 20260902031646 | 16 | 240 | 0.0 | 3.2 | 0.00 | 0.03 | 0.03 | 82 | 1011.6 |
| 20260902030649 | 17 | 240 | 0.0 | 1.6 | 0.00 | 0.03 | 0.03 | 80 | 1011.6 |
| 20260902025646 | 17 | 240 | 0.0 | 1.6 | 0.00 | 0.03 | 0.03 | 80 | 1011.6 |
| 20260902024647 | 17 | 240 | 0.0 | 3.2 | 0.00 | 0.03 | 0.03 | 79 | 1011.4 |
| 20260902023646 | 17 | 240 | 0.0 | 1.6 | 0.00 | 0.03 | 0.03 | 79 | 1011.4 |
| 20260902022646 | 17 | 240 | 0.0 | 1.6 | 0.00 | 0.03 | 0.03 | 79 | 1011.4 |
| 20260902021649 | 17 | 240 | 0.0 | 3.2 | 0.00 | 0.03 | 0.03 | 78 | 1011.2 |
| 20260902020646 | 17 | 240 | 0.0 | 3.2 | 0.00 | 0.03 | 0.03 | 78 | 1011.2 |
| 20260902015650 | 17 | 240 | 0.0 | 1.6 | 0.00 | 0.03 | 0.03 | 79 | 1011.1 |
| 20260902014646 | 17 | 240 | 0.0 | 1.6 | 0.00 | 0.03 | 0.03 | 79 | 1011.1 |
| 20260902013648 | 18 | 240 | 0.0 | 0.0 | 0.00 | 0.03 | 0.03 | 78 | 1010.9 |
| 20260902012647 | 18 | 240 | 0.0 | 0.0 | 0.00 | 0.03 | 0.03 | 78 | 1010.9 |
| 20260902005647 | 20 | 240 | 0.0 | 0.0 | 0.00 | 0.03 | 0.03 | 71 | 1010.6 |
| 20260902004646 | 20 | 240 | 0.0 | 0.0 | 0.00 | 0.03 | 0.03 | 71 | 1010.6 |
| 20260902003649 | 21 | 240 | 0.0 | 6.4 | 0.00 | 0.03 | 0.03 | 65 | 1010.4 |
| 20260902002646 | 21 | 240 | 0.0 | 6.4 | 0.00 | 0.03 | 0.03 | 65 | 1010.4 |
| 20260902001647 | 22 | 229 | 0.0 | 9.7 | 0.00 | 0.03 | 0.03 | 62 | 1010.5 |
| 20260902000648 | 22 | 229 | 0.0 | 9.7 | 0.00 | 0.03 | 0.03 | 62 | 1010.5 |
| 20260901235648 | 22 | 242 | 3.2 | 9.7 | 0.00 | 0.03 | 0.03 | 58 | 1010.4 |
| 20260901234647 | 22 | 242 | 3.2 | 9.7 | 0.00 | 0.03 | 0.03 | 58 | 1010.4 |
| 20260901233648 | 23 | 221 | 1.6 | 12.9 | 0.00 | 0.03 | 0.03 | 56 | 1010.4 |
| 20260901232646 | 23 | 5 | 1.6 | 11.3 | 0.00 | 0.03 | 0.03 | 55 | 1010.2 |
| 20260901224648 | 24 | 49 | 6.4 | 12.9 | 0.00 | 0.03 | 0.03 | 52 | 1010.2 |
| 20260901223649 | 24 | 49 | 6.4 | 12.9 | 0.00 | 0.03 | 0.03 | 52 | 1010.2 |
| 20260901222649 | 24 | 221 | 1.6 | 16.1 | 0.00 | 0.03 | 0.03 | 52 | 1010.1 |
| 20260901221648 | 24 | 221 | 1.6 | 16.1 | 0.00 | 0.03 | 0.03 | 52 | 1010.1 |
| 20260901220649 | 24 | 333 | 9.7 | 17.7 | 0.00 | 0.03 | 0.03 | 50 | 1010.0 |
| 20260901215649 | 24 | 333 | 9.7 | 17.7 | 0.00 | 0.03 | 0.03 | 50 | 1010.0 |
| 20260901214649 | 25 | 155 | 8.0 | 22.5 | 0.00 | 0.03 | 0.03 | 46 | 1009.9 |
| 20260901213648 | 25 | 155 | 8.0 | 22.5 | 0.00 | 0.03 | 0.03 | 46 | 1009.9 |
| 20260901212648 | 26 | 194 | 6.4 | 14.5 | 0.00 | 0.03 | 0.03 | 45 | 1009.9 |
| 20260901211648 | 26 | 194 | 6.4 | 14.5 | 0.00 | 0.03 | 0.03 | 45 | 1009.9 |
| 20260901210648 | 26 | 209 | 11.3 | 19.3 | 0.00 | 0.03 | 0.03 | 46 | 1010.0 |
| 20260901205649 | 26 | 209 | 11.3 | 19.3 | 0.00 | 0.03 | 0.03 | 46 | 1010.0 |
| 20260901204647 | 26 | 213 | 6.4 | 20.9 | 0.00 | 0.03 | 0.03 | 45 | 1010.0 |
| 20260901203648 | 26 | 213 | 6.4 | 20.9 | 0.00 | 0.03 | 0.03 | 45 | 1010.0 |
| 20260901202649 | 25 | 216 | 4.8 | 17.7 | 0.00 | 0.03 | 0.03 | 49 | 1010.1 |
| 20260901201648 | 26 | 207 | 8.0 | 14.5 | 0.00 | 0.03 | 0.03 | 47 | 1010.1 |
| 20260901200648 | 26 | 207 | 8.0 | 14.5 | 0.00 | 0.03 | 0.03 | 47 | 1010.1 |
| 20260901195648 | 25 | 249 | 3.2 | 16.1 | 0.00 | 0.03 | 0.03 | 51 | 1010.2 |
| 20260901194652 | 25 | 249 | 3.2 | 16.1 | 0.00 | 0.03 | 0.03 | 51 | 1010.2 |
| 20260901193648 | 25 | 221 | 9.7 | 17.7 | 0.00 | 0.03 | 0.03 | 46 | 1010.1 |
| 20260901192648 | 25 | 221 | 9.7 | 17.7 | 0.00 | 0.03 | 0.03 | 46 | 1010.1 |
| 20260901191652 | 26 | 196 | 4.8 | 19.3 | 0.00 | 0.03 | 0.03 | 48 | 1010.4 |
| 20260901190649 | 26 | 196 | 4.8 | 19.3 | 0.00 | 0.03 | 0.03 | 48 | 1010.4 |
| 20260901185648 | 26 | 194 | 3.2 | 20.9 | 0.00 | 0.03 | 0.03 | 46 | 1010.5 |
| 20260901184650 | 26 | 194 | 3.2 | 20.9 | 0.00 | 0.03 | 0.03 | 46 | 1010.5 |
| 20260901183650 | 25 | 192 | 4.8 | 16.1 | 0.00 | 0.03 | 0.03 | 49 | 1010.6 |
| 20260901181649 | 25 | 215 | 8.0 | 19.3 | 0.00 | 0.03 | 0.03 | 49 | 1010.7 |
| 20260901180650 | 25 | 215 | 8.0 | 19.3 | 0.00 | 0.03 | 0.03 | 49 | 1010.7 |
| 20260901175649 | 25 | 71 | 6.4 | 16.1 | 0.00 | 0.03 | 0.03 | 51 | 1010.9 |
| 20260901174649 | 25 | 71 | 6.4 | 16.1 | 0.00 | 0.03 | 0.03 | 51 | 1010.9 |
| 20260901173649 | 24 | 55 | 1.6 | 19.3 | 0.00 | 0.03 | 0.03 | 52 | 1010.8 |
| 20260901172649 | 24 | 55 | 1.6 | 19.3 | 0.00 | 0.03 | 0.03 | 52 | 1010.8 |
| 20260901171648 | 24 | 327 | 3.2 | 24.1 | 0.00 | 0.03 | 0.03 | 53 | 1010.9 |
| 20260901170648 | 23 | 219 | 3.2 | 24.1 | 0.00 | 0.03 | 0.03 | 55 | 1011.2 |
| 20260901165649 | 23 | 219 | 3.2 | 24.1 | 0.00 | 0.03 | 0.03 | 55 | 1011.2 |
| 20260901164649 | 23 | 162 | 3.2 | 14.5 | 0.00 | 0.03 | 0.03 | 56 | 1011.4 |
| 20260901163648 | 23 | 162 | 3.2 | 14.5 | 0.00 | 0.03 | 0.03 | 56 | 1011.4 |
| 20260901162649 | 23 | 217 | 6.4 | 22.5 | 0.00 | 0.03 | 0.03 | 59 | 1011.6 |
| 20260901161624 | 23 | 217 | 6.4 | 22.5 | 0.00 | 0.03 | 0.03 | 59 | 1011.6 |
| 20260901160626 | 22 | 197 | 3.2 | 22.5 | 0.00 | 0.03 | 0.03 | 61 | 1011.6 |
| 20260901155626 | 22 | 197 | 3.2 | 22.5 | 0.00 | 0.03 | 0.03 | 61 | 1011.6 |
| 20260901154625 | 22 | 304 | 3.2 | 16.1 | 0.03 | 0.03 | 0.03 | 64 | 1011.5 |
| 20260901153626 | 22 | 304 | 3.2 | 16.1 | 0.03 | 0.03 | 0.03 | 64 | 1011.5 |
| 20260901152625 | 21 | 201 | 4.8 | 11.3 | 0.03 | 0.03 | 0.03 | 68 | 1011.6 |
| 20260901151626 | 21 | 201 | 4.8 | 11.3 | 0.03 | 0.03 | 0.03 | 68 | 1011.6 |
| 20260901140626 | 17 | 81 | 0.0 | 6.4 | 0.00 | 0.00 | 0.00 | 78 | 1011.4 |
| 20260901135626 | 17 | 265 | 0.0 | 1.6 | 0.00 | 0.00 | 0.00 | 81 | 1011.6 |
| 20260901134626 | 17 | 265 | 0.0 | 1.6 | 0.00 | 0.00 | 0.00 | 81 | 1011.6 |
| 20260901133627 | 16 | 292 | 0.0 | 6.4 | 0.00 | 0.00 | 0.00 | 86 | 1011.6 |
| 20260901132626 | 16 | 292 | 0.0 | 6.4 | 0.00 | 0.00 | 0.00 | 86 | 1011.6 |
| 20260901131627 | 15 | 284 | 0.0 | 1.6 | 0.00 | 0.00 | 0.00 | 89 | 1011.6 |
| 20260901130626 | 15 | 284 | 0.0 | 1.6 | 0.00 | 0.00 | 0.00 | 89 | 1011.6 |
| 20260901125625 | 14 | 275 | 0.0 | 0.0 | 0.00 | 0.00 | 0.00 | 90 | 1011.5 |
| 20260901124626 | 14 | 275 | 0.0 | 0.0 | 0.00 | 0.00 | 0.00 | 90 | 1011.5 |
| 20260901123626 | 13 | 275 | 0.0 | 1.6 | 0.00 | 0.00 | 0.00 | 91 | 1011.2 |
| 20260901122626 | 13 | 275 | 0.0 | 1.6 | 0.00 | 0.00 | 0.00 | 91 | 1011.2 |
| 20260901121629 | 13 | 286 | 0.0 | 3.2 | 0.00 | 0.00 | 0.00 | 90 | 1011.0 |
| 20260901120630 | 13 | 286 | 0.0 | 3.2 | 0.00 | 0.00 | 0.00 | 90 | 1011.0 |
| 20260901115625 | 14 | 326 | 0.0 | 1.6 | 0.00 | 0.00 | 0.00 | 89 | 1011.0 |
| 20260901114627 | 14 | 326 | 0.0 | 1.6 | 0.00 | 0.00 | 0.00 | 89 | 1011.0 |
| 20260901113630 | 14 | 277 | 0.0 | 1.6 | 0.00 | 0.00 | 0.00 | 88 | 1010.9 |
| 20260901112626 | 14 | 277 | 0.0 | 1.6 | 0.00 | 0.00 | 0.00 | 88 | 1010.9 |
| 20260901111627 | 15 | 300 | 0.0 | 0.0 | 0.00 | 0.00 | 0.00 | 86 | 1010.7 |
| 20260901110627 | 15 | 300 | 0.0 | 0.0 | 0.00 | 0.00 | 0.00 | 86 | 1010.7 |
| 20260901105627 | 15 | 269 | 0.0 | 3.2 | 0.00 | 0.00 | 0.00 | 85 | 1010.7 |
| 20260901104626 | 15 | 279 | 1.6 | 8.0 | 0.00 | 0.00 | 0.00 | 83 | 1010.6 |
| 20260901103626 | 15 | 279 | 1.6 | 8.0 | 0.00 | 0.00 | 0.00 | 83 | 1010.6 |